Location: Degersen
(52.2871°N, 9.5716°E)
Time: 23:25:13
(UTC+00:00)

BREEZE-M DEB (TANK) - Pass Details

Date: 20 January 2026
Orbit: 312 x 11318 km, 49.7° (Epoch: 7 February)

Event Time Altitude Azimuth Distance (km) Brightness Sun altitude
Exits shadow 05:45:28 20° 229° (SW) 806 3.9 -13.9°
Maximum altitude 05:46:06 23° 202° (SSW) 732 3.9 -13.8°
Drops below altitude 10° 05:48:07 10° 144° (SE) 1,303 6.0 -13.5°
Sets 05:50:37 0° 128° (SE) 2,494 8.0 -13.1°
